Theta_e
297 293 290 291 291 293 293 291 292 302 303 309 307 309 311 315 317 319 323 324 327 329 333 335 336 336 335 338 341 340 336 334 331 329 326 325 323 321 319 320 322 320 320 319
295 290 295 296 295 294 293 291 290 293 297 309 304 307 310 314 317 318 322 324 327 327 330 332 332 332 332 333 338 339 337 334 331 330 329 325 323 318 317 318 319 320 319 319
293 296 300 298 295 294 291 291 291 292 301 303 305 303 309 315 316 321 323 326 328 328 329 330 328 328 326 327 331 334 335 334 333 331 326 322 319 316 315 315 316 319 321 320
294 298 299 296 296 296 290 296 296 296 294 290 303 290 299 310 313 318 320 322 325 327 331 330 326 325 324 323 324 326 328 328 329 328 323 319 314 311 313 314 316 317 320 320
296 297 296 295 297 298 296 297 295 296 292 291 295 290 294 306 309 314 318 320 324 327 329 327 327 327 324 322 321 322 322 323 325 326 321 316 313 313 314 314 315 317 318 320
298 300 300 299 301 300 300 297 294 291 288 286 289 293 289 294 310 315 318 321 323 326 328 327 326 324 322 321 319 319 319 319 320 319 316 315 314 313 311 312 314 315 316 317
294 296 300 303 298 298 296 292 285 285 285 285 289 288 292 296 300 310 315 319 323 325 326 322 321 320 321 320 319 319 317 315 315 315 314 314 315 314 313 313 314 314 314 315
289 290 297 302 298 295 293 291 287 282 282 285 290 287 293 300 306 308 310 307 318 324 324 323 322 320 322 321 318 318 315 314 313 313 313 313 315 314 313 315 314 314 314 316
289 291 299 302 301 300 293 290 292 287 285 285 286 292 301 304 306 315 316 309 318 321 320 321 321 321 320 319 320 317 315 314 313 314 313 313 313 314 313 314 314 314 316 318
295 290 298 301 301 299 296 297 291 287 283 282 286 288 293 299 302 310 314 316 318 318 317 319 319 321 321 320 318 316 315 314 314 314 313 313 314 315 315 314 315 316 315 314
295 293 294 298 295 295 294 291 290 290 288 284 283 287 296 299 303 308 313 316 316 316 317 317 320 320 321 319 317 315 314 313 314 315 314 314 314 315 315 316 315 314 313 313
296 291 289 293 297 300 296 293 291 287 286 286 286 287 298 302 303 306 312 316 317 318 318 319 319 319 318 317 316 315 314 314 315 315 315 314 314 316 316 314 311 312 311 312
298 291 287 290 294 297 295 295 293 290 289 286 286 288 300 302 303 304 306 312 316 317 317 316 316 317 317 316 316 315 315 314 315 315 314 315 317 315 313 311 312 312 313 312
304 291 290 287 290 293 292 295 294 293 287 288 288 291 298 300 302 304 305 306 309 315 316 315 314 315 317 317 316 315 316 317 316 316 316 316 316 314 314 313 313 311 310 308
298 292 292 294 295 295 296 296 295 294 293 292 294 292 297 300 301 302 303 305 306 312 314 315 314 314 315 314 315 317 317 317 317 316 316 315 314 314 313 311 309 309 308 308
296 292 293 292 297 297 295 297 297 296 295 295 295 294 300 301 301 302 303 303 306 309 314 315 316 314 313 314 315 317 317 317 318 317 315 314 314 314 310 309 306 304 304 304
295 293 291 288 295 295 291 295 297 297 297 297 293 296 299 300 301 301 302 303 305 308 312 314 315 314 312 315 316 316 317 318 317 315 314 314 312 310 307 304 303 302 302 302
294 291 290 287 290 284 294 300 301 299 300 299 298 299 301 301 301 303 305 304 305 308 310 312 313 312 313 315 317 317 318 317 315 313 313 311 309 305 303 302 302 301 301 301
298 293 290 287 286 291 295 300 299 297 297 300 299 302 303 303 306 305 309 310 310 311 313 313 313 314 315 315 316 317 316 316 314 312 310 307 305 303 302 301 300 300 300 299
298 296 293 288 284 284 293 301 304 302 293 304 302 302 302 304 297 300 307 314 314 314 314 313 314 314 314 315 316 315 314 313 310 308 306 305 304 302 301 301 300 300 297 297
292 292 291 286 286 290 298 304 305 293 295 303 304 302 301 301 303 304 310 311 313 314 314 315 315 313 314 315 314 310 310 309 308 306 305 303 302 301 301 301 299 295 296 298
291 289 288 287 285 286 303 303 297 300 302 306 306 305 304 304 306 309 310 310 311 312 313 315 313 312 313 313 311 308 307 306 305 304 303 301 301 302 301 296 294 295 294 294
289 294 291 293 290 298 302 303 305 305 304 306 307 308 308 308 309 310 308 307 308 311 309 309 309 309 309 310 308 305 303 304 303 302 301 300 300 300 297 294 293 293 294 293
294 298 293 296 296 300 305 307 308 308 307 310 311 312 311 307 309 307 306 305 307 308 307 309 308 307 307 308 307 305 303 304 302 300 300 299 298 297 297 295 295 294 293 293
296 297 296 297 301 306 308 309 308 309 311 311 312 313 312 309 308 306 306 306 307 307 308 309 308 308 306 306 304 304 303 302 300 300 299 298 298 297 296 297 296 296 296 295
296 295 295 294 302 301 302 304 308 308 309 310 309 310 312 310 308 307 306 307 307 307 309 308 307 305 304 304 303 303 303 302 300 298 298 297 297 296 297 297 297 294 294 293
Wind_Speed
4 5 5 6 4 5 5 4 6 5 8 8 15 15 11 6 6 9 9 9 8 7 5 5 5 5 7 7 11 12 13 11 11 7 5 3 3 3 4 4 5 6 5 5
6 2 5 5 5 5 6 8 7 4 3 10 2 16 5 6 5 5 9 10 12 7 7 6 6 4 2 6 7 10 12 11 8 7 3 4 3 3 4 3 4 5 6 6
6 4 3 5 5 5 5 5 4 4 3 3 5 6 6 6 5 5 7 8 8 14 15 11 7 6 6 6 5 6 8 9 7 8 7 5 4 4 3 3 3 3 5 5
4 4 2 2 4 7 3 8 4 8 6 4 2 5 5 6 8 7 9 13 13 12 10 11 11 9 9 7 5 5 5 6 6 8 9 11 6 6 2 3 3 3 4 5
6 4 5 4 6 7 9 6 5 2 5 5 1 5 9 4 6 12 14 14 16 17 17 17 15 13 9 8 8 7 7 7 6 5 7 7 6 5 3 3 5 4 3 4
6 2 4 7 3 5 7 8 8 6 3 2 5 7 7 5 12 12 14 16 17 18 17 12 10 11 8 9 7 5 7 6 7 6 7 9 11 9 7 4 4 3 1 2
3 4 4 3 3 4 7 8 3 3 4 6 1 4 10 6 6 9 12 17 17 14 16 15 17 11 12 10 9 8 6 7 7 8 8 8 11 11 10 7 4 4 2 2
3 6 5 4 5 7 5 8 8 7 5 7 2 6 8 7 5 8 11 12 9 14 15 17 14 13 5 7 8 6 9 8 8 8 9 8 10 8 6 5 4 3 3 2
5 7 5 4 3 5 5 4 4 9 4 2 3 6 9 4 6 3 7 5 7 12 14 15 18 18 19 19 22 14 10 8 9 9 8 7 6 9 7 6 5 3 4 4
3 3 4 1 4 4 4 5 4 3 5 5 5 4 7 5 10 5 5 7 7 7 9 11 14 17 14 12 10 10 9 11 10 8 6 7 7 6 7 6 6 6 5 5
6 6 8 2 4 9 3 1 6 6 5 8 3 8 9 9 9 9 8 8 8 10 13 15 17 17 15 9 10 12 9 8 9 8 7 8 7 6 7 6 6 5 4 5
3 5 6 11 2 2 2 7 7 7 5 1 4 9 4 9 7 8 9 9 8 11 13 14 12 12 12 13 12 13 10 9 9 7 8 7 8 8 8 7 7 5 5 4
7 1 2 9 7 2 4 4 4 6 4 7 7 8 3 5 6 8 9 8 8 9 8 8 10 14 14 13 12 11 10 7 7 7 9 9 9 9 9 9 6 6 5 5
8 4 9 8 9 2 3 5 4 5 5 6 8 6 7 7 8 6 8 9 8 8 9 9 10 14 14 13 13 13 11 10 9 10 9 9 8 9 9 8 6 7 4 6
7 5 5 6 7 3 4 4 8 8 6 7 7 9 9 9 9 8 7 5 8 11 13 16 16 15 13 12 13 13 12 12 11 11 9 9 9 9 9 8 7 6 4 3
1 5 6 3 3 6 5 7 5 4 2 6 7 7 9 7 5 8 10 8 10 12 17 19 18 15 15 15 15 15 14 13 12 11 11 11 11 9 8 9 5 7 4 3
5 8 4 6 3 4 8 9 10 6 5 7 8 10 4 6 9 9 10 8 11 13 16 15 17 16 14 17 17 17 16 14 12 13 13 13 11 10 9 7 6 6 4 3
6 6 4 4 2 9 6 3 6 10 7 8 5 6 8 9 7 8 8 8 9 10 11 11 10 11 13 14 16 17 16 15 14 14 15 14 13 11 8 7 6 5 3 4
6 6 3 5 7 5 5 2 5 7 11 7 8 8 6 3 1 8 9 7 8 5 2 4 7 11 14 17 17 18 16 15 15 15 14 13 13 12 9 7 6 4 4 3
5 3 6 4 5 10 7 12 7 4 7 7 7 9 4 4 1 7 4 2 1 5 6 10 12 14 16 15 16 17 15 15 15 15 15 13 12 10 9 7 6 3 3 3
4 2 8 4 7 7 7 5 4 7 8 4 1 2 5 5 7 3 3 2 3 3 6 9 10 11 12 13 14 16 16 14 14 13 13 12 10 10 9 7 4 5 4 6
9 8 5 3 4 10 3 3 7 5 3 2 2 3 6 8 5 5 4 4 8 10 10 8 10 10 9 9 12 13 14 13 14 15 13 11 9 8 7 9 5 5 6 5
5 8 7 11 9 4 2 2 1 3 4 4 3 5 5 6 4 2 4 5 6 9 9 11 13 12 9 11 11 9 11 15 15 14 12 9 8 8 8 8 7 4 4 4
3 0 3 2 1 3 2 1 2 1 3 5 3 6 6 6 4 4 7 8 9 10 12 11 14 14 10 7 7 11 10 13 14 13 11 9 9 8 6 5 5 5 4 4
3 5 1 3 4 2 1 2 2 2 3 4 5 5 6 5 5 5 6 8 9 10 10 11 13 13 12 12 10 11 9 12 11 11 9 8 7 8 7 5 6 5 4 4
2 4 1 4 1 2 6 3 3 4 6 7 5 7 6 5 8 6 5 6 10 12 11 10 12 14 12 12 10 10 10 12 13 10 8 7 7 5 6 5 3 2 4 7
Wind_Direction
5 77 181 185 174 144 112 122 180 233 217 141 215 232 254 218 166 176 184 172 168 169 150 136 130 122 114 117 126 132 134 141 133 134 126 113 97 98 70 59 70 71 70 68
22 259 218 144 151 155 170 192 218 222 269 183 150 237 250 206 229 182 190 185 179 155 169 172 153 140 115 135 131 142 149 152 148 144 138 122 166 99 104 96 76 83 82 72
158 231 145 163 158 178 207 202 199 189 90 29 109 310 200 228 185 181 189 201 197 190 179 178 171 152 132 141 153 157 153 157 153 137 121 101 92 74 82 69 76 48 76 78
227 265 251 148 243 162 220 205 167 130 127 211 170 263 255 214 209 199 198 197 197 194 192 180 177 173 160 158 143 138 147 150 149 157 143 151 139 131 159 130 105 86 67 70
243 192 230 256 219 174 225 136 161 107 146 97 231 78 270 145 206 223 219 210 201 196 186 188 184 169 171 144 149 152 147 148 155 160 142 135 122 116 118 101 125 104 64 55
228 243 230 217 153 179 143 67 48 53 81 65 224 143 280 197 211 220 223 226 212 195 188 179 169 148 151 156 132 134 142 150 164 145 139 142 137 138 133 151 133 116 93 60
309 236 265 203 107 50 65 71 5 351 359 221 105 86 235 227 241 233 238 234 222 184 180 168 174 145 185 147 144 138 192 165 160 151 153 149 149 152 154 156 142 149 147 72
174 314 188 177 195 176 175 153 155 193 199 240 67 234 252 208 205 248 262 253 224 179 177 181 151 154 150 121 97 285 182 154 168 163 159 160 159 156 150 148 136 147 130 123
167 271 279 225 160 133 176 181 170 102 15 49 233 290 312 286 299 335 291 257 183 169 175 169 161 170 167 185 173 186 184 171 169 165 159 162 143 144 156 138 127 129 127 103
190 291 237 208 94 35 154 154 83 10 139 230 285 277 232 255 256 263 237 194 173 150 154 165 164 175 189 190 151 172 179 179 166 157 146 146 153 140 129 131 128 124 114 103
139 141 265 347 201 181 139 192 54 114 127 170 203 262 217 219 217 226 233 219 196 182 176 177 184 187 186 160 166 173 175 168 165 154 143 146 144 115 100 109 109 107 98 101
189 152 233 216 216 212 201 172 139 127 224 202 154 265 224 231 237 210 236 215 215 204 195 193 189 181 177 175 171 181 168 173 168 153 140 133 109 112 119 117 115 109 99 101
180 132 352 333 353 349 199 192 122 111 88 192 149 257 246 257 248 243 240 219 211 215 190 181 176 188 192 184 172 166 151 149 143 135 124 123 128 129 126 123 130 114 117 92
108 139 163 195 221 200 196 187 167 131 126 194 211 239 275 254 227 226 228 232 211 195 203 199 193 200 195 184 168 159 151 148 144 138 137 136 136 131 131 125 120 115 120 113
129 197 179 239 234 220 257 224 173 189 200 179 234 192 242 242 230 241 250 230 197 203 195 198 204 199 190 173 161 155 149 145 146 141 139 137 131 126 122 116 110 96 105 116
0 203 162 261 273 226 256 260 226 246 221 273 264 272 227 285 290 280 264 245 219 211 210 208 204 194 185 171 161 154 150 148 149 145 139 137 137 132 123 119 139 121 129 125
157 140 123 238 254 333 291 194 206 209 196 191 222 232 258 270 269 260 269 248 235 229 215 212 206 193 173 169 162 154 151 146 149 144 143 144 138 133 135 137 129 127 139 127
146 128 133 194 64 246 248 228 191 204 220 224 261 243 231 232 246 255 238 246 249 222 211 205 177 162 156 147 149 140 147 152 149 150 148 144 143 138 137 136 133 130 123 120
183 132 151 163 200 296 317 227 191 186 255 215 221 241 249 251 50 288 239 221 251 245 185 149 136 142 143 148 147 146 152 153 150 149 149 145 144 140 142 135 136 138 127 112
107 61 165 141 189 222 215 224 203 91 264 243 204 239 223 124 245 255 346 236 142 133 136 134 136 142 149 156 151 145 147 146 150 150 146 143 138 137 138 143 132 107 101 118
143 189 210 177 240 283 244 256 129 205 256 261 245 209 136 204 215 253 305 103 114 103 114 127 141 145 143 142 141 137 143 150 142 134 133 132 140 142 141 125 109 127 118 117
179 171 190 117 229 286 198 52 166 232 276 297 296 243 213 227 257 265 231 146 128 119 114 119 117 116 121 130 135 141 135 136 132 132 132 141 140 131 126 126 132 136 128 117
238 195 190 179 207 231 252 151 232 186 229 255 260 290 274 265 248 140 126 117 125 123 114 120 118 110 111 126 129 132 135 133 132 136 138 138 129 131 140 136 138 134 135 129
316 35 220 52 311 246 235 185 217 216 242 297 284 311 320 288 274 179 150 147 145 138 133 135 127 125 114 94 115 135 144 138 137 136 137 136 140 142 148 143 148 143 154 148
261 339 242 293 279 315 297 268 308 288 276 271 261 248 268 261 234 182 173 169 155 143 139 143 138 139 138 130 128 130 154 140 135 137 140 141 146 149 162 169 170 176 191 169
229 262 291 247 332 48 274 280 288 277 275 283 273 290 273 211 211 184 185 172 153 150 147 135 132 124 124 117 130 153 164 148 140 139 147 158 154 160 167 172 166 226 226 205